Location: Dumpton Point
(51.3500°N, 1.4433°E)
Time: 02:44:28
(UTC+00:00)

Vanguard 1 - Visible Passes

Search period start: 25 September 2022 00:00
Search period end: 05 October 2022 00:00
Orbit: 649 x 3832 km, 34.2° (Epoch: 22 September)

Date Brightness Start Highest point End Pass type
(mag) Time Alt. Az. Time Alt. Az. Time Alt. Az.
25 Sep 11.7 18:09:58 10° SW 18:14:05 16° S 18:17:21 10° SSE visible
26 Sep 11.7 18:30:33 10° SW 18:34:20 15° SSW 18:37:24 10° SSE visible
27 Sep 11.8 18:51:25 10° SW 18:54:32 14° SSW 18:57:10 10° S visible
28 Sep 12.0 19:12:52 10° SW 19:14:40 11° SSW 19:16:19 10° S visible
02 Oct 12.2 18:11:55 10° WSW 18:16:40 16° SSW 18:20:21 10° S visible
03 Oct 12.4 18:33:32 10° WSW 18:36:41 12° SW 18:39:20 10° SSW visible
